• In Latvia
  • List of Countries
  • For 7 days
  • Water Temperature
  • Satellite Maps
  • Weather Map
  • Weather Widgets
  • user-avatar
    Login

    Hourly Weather Zabudenovskiy

    Today, 20 September, Thursday

    Time Temperature Precipitation Wind Pressure Humidity
    00:00 +20°C° 0 mm 1 mps 764 mmHg 50%
    01:00 +19°C° 0 mm 1 mps 764 mmHg 51%
    02:00 +19°C° 0 mm 1 mps 764 mmHg 52%
    03:00 +17°C° 0 mm 0 mps 764 mmHg 53%
    04:00 +17°C° 0 mm 0 mps 764 mmHg 54%
    05:00 +16°C° 0 mm 0 mps 764 mmHg 55%
    06:00 +16°C° 0 mm 0 mps 764 mmHg 55%
    07:00 +20°C° 0 mm 1 mps 764 mmHg 51%
    08:00 +22°C° 0 mm 1 mps 765 mmHg 47%
    09:00 +24°C° 0 mm 1 mps 764 mmHg 41%
    10:00 +25°C° 0 mm 2 mps 764 mmHg 39%
    11:00 +27°C° 0 mm 2 mps 764 mmHg 37%
    12:00 +28°C° 0 mm 2 mps 764 mmHg 34%
    13:00 +29°C° 0 mm 2 mps 764 mmHg 32%
    14:00 +29°C° 0 mm 2 mps 763 mmHg 30%
    15:00 +30°C° 0 mm 3 mps 763 mmHg 28%
    16:00 +29°C° 0 mm 2 mps 763 mmHg 30%
    17:00 +28°C° 0 mm 2 mps 762 mmHg 33%
    18:00 +27°C° 0 mm 2 mps 762 mmHg 35%
    19:00 +26°C° 0 mm 2 mps 762 mmHg 38%
    20:00 +25°C° 0 mm 2 mps 762 mmHg 41%
    21:00 +24°C° 0 mm 2 mps 762 mmHg 44%
    22:00 +23°C° 0 mm 2 mps 762 mmHg 46%
    23:00 +23°C° 0 mm 2 mps 762 mmHg 48%

    Tomorrow, 21 September, Friday

    Time Temperature Precipitation Wind Pressure Humidity
    00:00 +21°C° 0 mm 2 mps 762 mmHg 50%
    01:00 +21°C° 0 mm 2 mps 762 mmHg 52%
    02:00 +21°C° 0 mm 2 mps 762 mmHg 54%
    03:00 +20°C° 0 mm 2 mps 762 mmHg 56%
    04:00 +20°C° 0 mm 2 mps 762 mmHg 58%
    05:00 +20°C° 0 mm 2 mps 762 mmHg 61%
    06:00 +19°C° 0 mm 2 mps 762 mmHg 63%
    07:00 +21°C° 0 mm 2 mps 762 mmHg 59%
    08:00 +24°C° 0 mm 2 mps 763 mmHg 55%
    09:00 +26°C° 0 mm 2 mps 763 mmHg 51%
    10:00 +27°C° 0 mm 3 mps 763 mmHg 47%
    11:00 +28°C° 0 mm 3 mps 763 mmHg 42%
    12:00 +30°C° 0 mm 3 mps 763 mmHg 38%
    13:00 +30°C° 0 mm 3 mps 762 mmHg 36%
    14:00 +31°C° 0 mm 3 mps 762 mmHg 33%
    15:00 +31°C° 0 mm 3 mps 762 mmHg 31%
    16:00 +30°C° 0 mm 3 mps 762 mmHg 33%
    17:00 +29°C° 0 mm 2 mps 762 mmHg 35%
    18:00 +28°C° 0 mm 2 mps 762 mmHg 37%
    19:00 +27°C° 0 mm 2 mps 762 mmHg 39%
    20:00 +26°C° 0 mm 3 mps 762 mmHg 41%
    21:00 +25°C° 0 mm 3 mps 763 mmHg 43%
    22:00 +24°C° 0 mm 3 mps 763 mmHg 45%
    23:00 +22°C° 0 mm 3 mps 763 mmHg 47%

    Day after tomorrow, 22 September, Saturday

    Time Temperature Precipitation Wind Pressure Humidity
    00:00 +22°C° 0 mm 4 mps 763 mmHg 49%
    01:00 +21°C° 0 mm 3 mps 763 mmHg 51%
    02:00 +20°C° 0 mm 3 mps 763 mmHg 53%
    03:00 +20°C° 0 mm 3 mps 763 mmHg 55%
    04:00 +19°C° 0 mm 3 mps 763 mmHg 57%
    05:00 +19°C° 0 mm 3 mps 763 mmHg 59%
    06:00 +18°C° 0 mm 3 mps 763 mmHg 62%
    07:00 +20°C° 0 mm 3 mps 763 mmHg 57%
    08:00 +21°C° 0 mm 4 mps 763 mmHg 53%
    09:00 +23°C° 0 mm 4 mps 763 mmHg 49%
    10:00 +25°C° 0 mm 4 mps 763 mmHg 44%
    11:00 +27°C° 0 mm 4 mps 763 mmHg 39%
    12:00 +29°C° 0 mm 4 mps 763 mmHg 35%
    13:00 +29°C° 0 mm 4 mps 763 mmHg 33%
    14:00 +30°C° 0 mm 4 mps 762 mmHg 31%
    15:00 +30°C° 0 mm 3 mps 762 mmHg 29%
    16:00 +29°C° 0 mm 3 mps 762 mmHg 31%
    17:00 +28°C° 0 mm 3 mps 761 mmHg 34%
    18:00 +27°C° 0 mm 3 mps 761 mmHg 36%
    19:00 +26°C° 0 mm 3 mps 761 mmHg 38%
    20:00 +25°C° 0 mm 3 mps 761 mmHg 41%
    21:00 +24°C° 0 mm 3 mps 761 mmHg 43%
    22:00 +22°C° 0 mm 3 mps 761 mmHg 44%
    23:00 +22°C° 0 mm 3 mps 761 mmHg 46%

    23 September, Sunday

    Time Temperature Precipitation Wind Pressure Humidity
    00:00 +21°C° 0 mm 3 mps 761 mmHg 48%
    01:00 +21°C° 0 mm 3 mps 761 mmHg 49%
    02:00 +20°C° 0 mm 3 mps 760 mmHg 50%
    03:00 +20°C° 0 mm 3 mps 760 mmHg 51%
    04:00 +19°C° 0 mm 3 mps 760 mmHg 53%
    05:00 +19°C° 0 mm 3 mps 760 mmHg 54%
    06:00 +19°C° 0 mm 3 mps 760 mmHg 56%
    07:00 +20°C° 0 mm 3 mps 760 mmHg 52%
    08:00 +22°C° 0 mm 3 mps 759 mmHg 48%
    09:00 +25°C° 0 mm 4 mps 759 mmHg 44%
    10:00 +26°C° 0 mm 4 mps 759 mmHg 40%
    11:00 +28°C° 0 mm 4 mps 758 mmHg 35%
    12:00 +30°C° 0 mm 5 mps 758 mmHg 31%
    13:00 +30°C° 0 mm 5 mps 758 mmHg 31%
    14:00 +30°C° 0 mm 5 mps 758 mmHg 30%
    15:00 +30°C° 0 mm 5 mps 757 mmHg 30%
    16:00 +28°C° 0.1 mm 6 mps 758 mmHg 38%
    17:00 +26°C° 0.1 mm 7 mps 758 mmHg 46%
    18:00 +23°C° 0.1 mm 7 mps 758 mmHg 54%
    19:00 +21°C° 0.1 mm 7 mps 759 mmHg 59%
    20:00 +19°C° 0.1 mm 6 mps 759 mmHg 64%
    21:00 +17°C° 0.1 mm 6 mps 760 mmHg 69%
    22:00 +16°C° 0 mm 6 mps 761 mmHg 67%
    23:00 +15°C° 0 mm 6 mps 761 mmHg 64%

    24 September, Monday

    Time Temperature Precipitation Wind Pressure Humidity
    00:00 +14°C° 0 mm 5 mps 762 mmHg 62%
    01:00 +14°C° 0 mm 4 mps 762 mmHg 64%
    02:00 +13°C° 0 mm 4 mps 762 mmHg 65%
    03:00 +13°C° 0 mm 3 mps 762 mmHg 66%
    04:00 +13°C° 0 mm 2 mps 763 mmHg 68%
    05:00 +13°C° 0 mm 2 mps 763 mmHg 69%
    06:00 +13°C° 0 mm 2 mps 763 mmHg 70%
    07:00 +14°C° 0 mm 1 mps 763 mmHg 64%
    08:00 +15°C° 0 mm 1 mps 763 mmHg 58%
    09:00 +18°C° 0 mm 1 mps 763 mmHg 52%
    10:00 +19°C° 0 mm 1 mps 763 mmHg 46%
    11:00 +20°C° 0 mm 1 mps 763 mmHg 40%
    12:00 +21°C° 0 mm 2 mps 763 mmHg 34%
    13:00 +21°C° 0 mm 2 mps 762 mmHg 31%
    14:00 +23°C° 0 mm 2 mps 762 mmHg 28%
    15:00 +24°C° 0 mm 2 mps 761 mmHg 26%
    16:00 +23°C° 0 mm 2 mps 761 mmHg 27%
    17:00 +21°C° 0 mm 2 mps 760 mmHg 29%
    18:00 +20°C° 0 mm 2 mps 760 mmHg 30%
    19:00 +20°C° 0 mm 2 mps 760 mmHg 31%
    20:00 +19°C° 0 mm 2 mps 759 mmHg 32%
    21:00 +18°C° 0 mm 2 mps 759 mmHg 32%
    22:00 +18°C° 0 mm 3 mps 759 mmHg 32%
    23:00 +17°C° 0 mm 3 mps 758 mmHg 32%

    25 September, Tuesday

    Time Temperature Precipitation Wind Pressure Humidity
    00:00 +17°C° 0 mm 3 mps 758 mmHg 32%
    01:00 +17°C° 0 mm 3 mps 758 mmHg 33%
    02:00 +17°C° 0 mm 3 mps 757 mmHg 35%
    03:00 +17°C° 0 mm 3 mps 757 mmHg 36%
    04:00 +17°C° 0 mm 3 mps 757 mmHg 42%
    05:00 +17°C° 0 mm 3 mps 757 mmHg 48%
    06:00 +16°C° 0 mm 2 mps 757 mmHg 54%
    07:00 +17°C° 0 mm 3 mps 757 mmHg 55%
    08:00 +18°C° 0 mm 4 mps 758 mmHg 56%
    09:00 +19°C° 0 mm 4 mps 758 mmHg 57%
    10:00 +17°C° 0.1 mm 5 mps 758 mmHg 59%
    11:00 +16°C° 0.1 mm 5 mps 759 mmHg 62%
    12:00 +16°C° 0.1 mm 5 mps 759 mmHg 64%
    13:00 +16°C° 0 mm 5 mps 759 mmHg 58%
    14:00 +18°C° 0 mm 4 mps 759 mmHg 53%
    15:00 +19°C° 0 mm 4 mps 760 mmHg 48%
    16:00 +18°C° 0 mm 3 mps 760 mmHg 47%
    17:00 +18°C° 0 mm 3 mps 760 mmHg 46%
    18:00 +18°C° 0 mm 2 mps 761 mmHg 45%
    19:00 +17°C° 0 mm 2 mps 761 mmHg 47%
    20:00 +16°C° 0 mm 3 mps 762 mmHg 49%
    21:00 +14°C° 0 mm 3 mps 762 mmHg 51%
    22:00 +14°C° 0 mm 3 mps 762 mmHg 51%
    23:00 +13°C° 0 mm 3 mps 763 mmHg 51%
    Show more